Weather History for Ostrava, Czech Republic

Change the Weather History Date:

Sunday, January 6, 2013

  Actual Average (EPKT) Record (EPKT)
Temperature  
Mean Temperature 32 °F -  
Max Temperature 34 °F 34 °F 48 °F (1999)
Min Temperature 31 °F 23 °F -7 °F (2009)
Degree Days  
Heating Degree Days 32    
Moisture  
Dew Point 30 °F    
Average Humidity 89    
Maximum Humidity 100    
Minimum Humidity 70    
Precipitation  
Precipitation 0.08 in 0.04 in - ()
Sea Level Pressure  
Sea Level Pressure 30.13 in    
Wind  
Wind Speed 6 mph ()    
Max Wind Speed 13 mph    
Max Gust Speed -    
Visibility 3.9 miles    
Events Rain , Snow    
Averages and records for this station are not official NWS values.
T = Trace of Precipitation, MM = Missing Value Source: Averaged Metar Reports

Daily Weather History Graph

Daily Weather History Graph

Search for Another Location

Airport:

Trip Planner

Search our weather history database for the weather conditions in past years. The results will help you decide how hot, cold, wet, or windy it might be!

Date:

Astronomy

Jan. 06, 2013 Rise Set
Actual Time 7:43 AM CET 4:03 PM CET
Civil Twilight 7:06 AM CET 4:40 PM CET
Nautical Twilight 6:25 AM CET 5:21 PM CET
Astronomical Twilight 5:46 AM CET 6:00 PM CET
Moon 1:22 AM CET (1/6) 11:31 AM CET (1/6)
Length of Visible Light 9h 34m
Length of Day
8h 19m
Waning Crescent, 36% of the Moon is Illuminated
Jan 6
Waning Crescent
Jan 11
New
Jan 19
First Quarter
Jan 27
Full
Feb 3
Last Quarter

Hourly Weather History & Observations

Time (CET) Temp. Windchill Dew Point Humidity Pressure Visibility Wind Dir Wind Speed Gust Speed Precip Events Conditions
12:00 AM 33.8 °F 27.0 °F 26.6 °F 75% 30.27 in 6.2 mi North 8.1 mph - N/A   Overcast
12:30 AM 33.8 °F 28.6 °F 28.4 °F 81% 30.27 in 6.2 mi North 5.8 mph - N/A   Overcast
1:00 AM 33 °F - 28 °F 73% 30.31 in 12 mi North 4.5 mph - -   Mostly Cloudy
1:00 AM 33.8 °F 29.6 °F 28.4 °F 81% 30.24 in 6.2 mi North 4.6 mph - N/A   Overcast
1:30 AM 33.8 °F 28.6 °F 28.4 °F 81% 30.24 in 6.2 mi North 5.8 mph - N/A   Overcast
2:00 AM 32.0 °F 26.4 °F 28.4 °F 87% 30.24 in 6.2 mi North 5.8 mph - N/A   Mostly Cloudy
2:30 AM 33.8 °F 26.4 °F 24.8 °F 70% 30.24 in 6.2 mi North 9.2 mph - N/A   Mostly Cloudy
3:00 AM 33.8 °F 27.7 °F 24.8 °F 70% 30.24 in 6.2 mi North 6.9 mph - N/A   Overcast
3:30 AM 32.0 °F 25.6 °F 24.8 °F 75% 30.24 in 6.2 mi North 6.9 mph - N/A   Overcast
4:00 AM 32.0 °F 25.6 °F 26.6 °F 80% 30.24 in 6.2 mi NNE 6.9 mph - N/A   Overcast
4:30 AM 32.0 °F 25.6 °F 26.6 °F 80% 30.24 in 6.2 mi NNE 6.9 mph - N/A   Overcast
5:00 AM 33.8 °F 26.4 °F 28.4 °F 81% 30.24 in 6.2 mi North 9.2 mph - N/A   Overcast
5:30 AM 32.0 °F 24.8 °F 28.4 °F 87% 30.24 in 6.2 mi NNE 8.1 mph - N/A   Overcast
6:00 AM 32.0 °F 25.6 °F 28.4 °F 87% 30.21 in 6.2 mi NE 6.9 mph - N/A   Overcast
6:30 AM 32.0 °F 27.5 °F 28.4 °F 87% 30.21 in 6.2 mi NE 4.6 mph - N/A   Mostly Cloudy
7:00 AM 31 °F - 27 °F 81% 30.27 in 9 mi ENE 4.5 mph - -   Partly Cloudy
7:00 AM 32.0 °F 28.7 °F 28.4 °F 87% 30.21 in 6.2 mi NE 3.5 mph - N/A   Scattered Clouds
7:30 AM 32.0 °F - 26.6 °F 80% 30.21 in 6.2 mi East 2.3 mph - N/A   Partly Cloudy
8:00 AM 32.0 °F - 28.4 °F 87% 30.21 in 6.2 mi ESE 2.3 mph - N/A   Partly Cloudy
8:30 AM 32.0 °F - 26.6 °F 80% 30.18 in 6.2 mi SE 2.3 mph - N/A   Mostly Cloudy
9:30 AM 32.0 °F - 28.4 °F 87% 30.18 in 6.2 mi SW 2.3 mph - N/A   Overcast
10:00 AM 33.8 °F 30.8 °F 28.4 °F 81% 30.18 in 4.3 mi SW 3.5 mph - N/A Snow Light Snow
10:02 AM 33.8 °F 29.6 °F 28.4 °F 81% 30.18 in 3.1 mi SW 4.6 mph - N/A Snow Light Snow
10:30 AM 33.8 °F 28.6 °F 28.4 °F 81% 30.18 in 5.0 mi SW 5.8 mph - N/A Snow Light Snow
11:00 AM 33.8 °F 27.7 °F 30.2 °F 87% 30.18 in 5.0 mi SW 6.9 mph - N/A Snow Light Snow
11:30 AM 33.8 °F 27.7 °F 30.2 °F 87% 30.15 in 5.0 mi SSW 6.9 mph - N/A Snow Light Snow
12:00 PM 33.8 °F 27.0 °F 30.2 °F 87% 30.12 in 4.3 mi SSW 8.1 mph - N/A Snow Light Snow
12:15 PM 33.8 °F 27.0 °F 30.2 °F 87% 30.09 in 3.1 mi SW 8.1 mph - N/A Snow Light Snow
12:30 PM 33.8 °F 27.0 °F 30.2 °F 87% 30.09 in 2.5 mi SW 8.1 mph - N/A Snow Light Snow
12:47 PM 33.8 °F 27.0 °F 30.2 °F 87% 30.09 in 1.9 mi SW 8.1 mph - N/A Snow Snow
1:00 PM 33 °F - 31 °F 88% 30.14 in 2 mi SSW 8.9 mph - - Snow Light Snow
1:00 PM 33.8 °F 27.0 °F 30.2 °F 87% 30.09 in 2.5 mi SSW 8.1 mph - N/A Snow Light Snow
1:30 PM 33.8 °F 27.7 °F 30.2 °F 87% 30.06 in 1.6 mi SSW 6.9 mph - N/A Snow Snow
2:00 PM 32.0 °F 26.4 °F 32.0 °F 100% 30.06 in 1.9 mi SSW 5.8 mph - N/A Snow Snow
2:30 PM 32.0 °F 27.5 °F 30.2 °F 93% 30.04 in 1.9 mi SSW 4.6 mph - N/A Snow Snow
3:00 PM 32.0 °F 24.2 °F 30.2 °F 93% 30.04 in 1.6 mi SW 9.2 mph - N/A Snow Light Snow
3:30 PM 32.0 °F 24.8 °F 32.0 °F 100% 30.04 in 1.2 mi SW 8.1 mph - N/A Snow Light Snow
4:00 PM 32.0 °F 24.8 °F 32.0 °F 100% 30.01 in 1.2 mi SW 8.1 mph - N/A Snow Light Snow
4:30 PM 32.0 °F 25.6 °F 32.0 °F 100% 30.01 in 1.6 mi SW 6.9 mph - N/A Snow Light Snow
5:00 PM 32.0 °F 26.4 °F 32.0 °F 100% 30.01 in 1.2 mi SW 5.8 mph - N/A Snow Snow
5:30 PM 32.0 °F 26.4 °F 32.0 °F 100% 30.01 in 1.9 mi SW 5.8 mph - N/A Snow Light Snow
6:00 PM 32.0 °F 25.6 °F 32.0 °F 100% 30.01 in 2.2 mi WSW 6.9 mph - N/A Snow Light Snow
6:30 PM 32.0 °F 26.4 °F 32.0 °F 100% 30.01 in 1.9 mi WSW 5.8 mph - N/A Rain , Snow Rain
7:00 PM 32 °F - 32 °F 98% 30.07 in 2 mi WSW 4.5 mph - - Snow Light Snow
7:00 PM 32.0 °F 26.4 °F 32.0 °F 100% 30.01 in 1.6 mi WSW 5.8 mph - N/A Snow Light Snow
7:21 PM 32.0 °F 28.7 °F 32.0 °F 100% 30.01 in 1.1 mi West 3.5 mph - N/A Snow Snow
7:30 PM 32.0 °F 28.7 °F 32.0 °F 100% 30.01 in 0.9 mi West 3.5 mph - N/A Snow Snow
8:00 PM 32.0 °F - 32.0 °F 100% 30.04 in 0.7 mi West 2.3 mph - N/A Snow Snow
8:30 PM 32.0 °F - 32.0 °F 100% 30.04 in 0.9 mi Variable 2.3 mph - N/A Snow Snow
9:00 PM 32.0 °F 27.5 °F 32.0 °F 100% 30.04 in 1.6 mi North 4.6 mph - N/A Snow Light Snow
9:30 PM 32.0 °F 26.4 °F 32.0 °F 100% 30.06 in 1.6 mi North 5.8 mph - N/A Snow Light Snow
10:00 PM 32.0 °F 25.6 °F 32.0 °F 100% 30.06 in 1.9 mi North 6.9 mph - N/A Snow Light Snow
10:30 PM 32.0 °F 24.2 °F 32.0 °F 100% 30.06 in 1.2 mi North 9.2 mph - N/A Snow Light Snow
11:00 PM 32.0 °F 24.2 °F 32.0 °F 100% 30.09 in 1.6 mi NNE 9.2 mph - N/A Snow Light Snow
11:30 PM 32.0 °F 22.5 °F 32.0 °F 100% 30.09 in 2.2 mi NNE 12.7 mph - N/A Snow Light Snow